Multibeam Report for EX1403


Ship Name: Okeanos Explorer
Chief Scientist: Sowers, Derek
NOAA/OAR/OER
Source Organization: NOAA Office of Ocean Exploration and Research (OER)
Start Date: 2014-05-07
End Date: 2014-05-22


View ISO Metadata

Visit the full NCEI Bathymetry Viewer


Multibeam Bathymetry

Cruise Details

Project: East Coast Mapping and Exploration
Instrument: Kongsberg EM302

Data Quality

Number of Files: 523
Number of Records: 1971222
BATHYMETRY DATA Quantity Percentage
Number of Beams 421005888 100%
Number of Good Beams 396762357 94.24%
Number of Zero Beams 1185 0.0%
Number of Flagged Beams 24242346 5.76%

Navigation Totals

Total Time: 313.1019 hours
Total Track Length: 4883.1869 km
Average Speed: 15.596 km/hr (8.4212 knots)

Cruise Bounds

Northern Extent: 40.052708
Southern Extent: 24.167658
Western Extent: -83.49853
Eastern Extent: -71.65963

Limits

Minimum Sonar Depth 0 Maximum Sonar Depth 4.6214
Minimum Altitude 42.7874 Maximum Altitude 4399.5483
Minimum Depth 35.9934 Maximum Depth 4611.1343

File Information

Full Resolution Bathymetry as collected (raw): 251

Files File Size Description
0000_20140508_000401_EX1403_MB.all.mb58.gz 454.76MB Kongsberg multibeam vendor format
0001_20140508_020401_EX1403_MB.all.mb58.gz 292.22MB Kongsberg multibeam vendor format
0002_20140508_025947_EX1403_MB.all.mb58.gz 607.45MB Kongsberg multibeam vendor format
0003_20140508_045947_EX1403_MB.all.mb58.gz 589.84MB Kongsberg multibeam vendor format
0004_20140508_065947_EX1403_MB.all.mb58.gz 570.70MB Kongsberg multibeam vendor format
0005_20140508_085947_EX1403_MB.all.mb58.gz 550.04MB Kongsberg multibeam vendor format
0006_20140508_105947_EX1403_MB.all.mb58.gz 244.53MB Kongsberg multibeam vendor format
0007_20140508_125949_EX1403_MB.all.mb58.gz 187.96MB Kongsberg multibeam vendor format
0008_20140508_145947_EX1403_MB.all.mb58.gz 189.63MB Kongsberg multibeam vendor format
0009_20140508_165948_EX1403_MB.all.mb58.gz 152.04MB Kongsberg multibeam vendor format
0010_20140508_185947_EX1403_MB.all.mb58.gz 134.78MB Kongsberg multibeam vendor format
0011_20140508_205947_EX1403_MB.all.mb58.gz 112.26MB Kongsberg multibeam vendor format
0012_20140508_225948_EX1403_MB.all.mb58.gz 103.68MB Kongsberg multibeam vendor format
0013_20140509_000511_EX1403_MB.all.mb58.gz 137.02MB Kongsberg multibeam vendor format
0014_20140509_020510_EX1403_MB.all.mb58.gz 189.59MB Kongsberg multibeam vendor format
0015_20140509_040511_EX1403_MB.all.mb58.gz 239.82MB Kongsberg multibeam vendor format
0016_20140509_060511_EX1403_MB.all.mb58.gz 107.12MB Kongsberg multibeam vendor format
0017_20140509_070817_EX1403_MB.all.mb58.gz 12.08MB Kongsberg multibeam vendor format
0018_20140509_071946_EX1403_MB.all.mb58.gz 8.97MB Kongsberg multibeam vendor format
0019_20140509_072518_EX1403_MB.all.mb58.gz 44.5KB Kongsberg multibeam vendor format
0020_20140509_073608_EX1403_MB.all.mb58.gz 197.57MB Kongsberg multibeam vendor format
0021_20140509_093608_EX1403_MB.all.mb58.gz 238.82MB Kongsberg multibeam vendor format
0022_20140509_113607_EX1403_MB.all.mb58.gz 186.99MB Kongsberg multibeam vendor format
0023_20140509_133608_EX1403_MB.all.mb58.gz 177.42MB Kongsberg multibeam vendor format
0024_20140509_153608_EX1403_MB.all.mb58.gz 183.63MB Kongsberg multibeam vendor format
0025_20140509_173609_EX1403_MB.all.mb58.gz 183.84MB Kongsberg multibeam vendor format
0026_20140509_193609_EX1403_MB.all.mb58.gz 185.14MB Kongsberg multibeam vendor format
0027_20140509_213609_EX1403_MB.all.mb58.gz 190.82MB Kongsberg multibeam vendor format
0028_20140509_233607_EX1403_MB.all.mb58.gz 185.76MB Kongsberg multibeam vendor format
0029_20140510_013608_EX1403_MB.all.mb58.gz 195.81MB Kongsberg multibeam vendor format
0030_20140510_033607_EX1403_MB.all.mb58.gz 206.49MB Kongsberg multibeam vendor format
0031_20140510_053608_EX1403_MB.all.mb58.gz 193.26MB Kongsberg multibeam vendor format
0032_20140510_073609_EX1403_MB.all.mb58.gz 180.21MB Kongsberg multibeam vendor format
0033_20140510_093611_EX1403_MB.all.mb58.gz 123.15MB Kongsberg multibeam vendor format
0034_20140510_132038_EX1403_MB.all.mb58.gz 179.10MB Kongsberg multibeam vendor format
0035_20140510_152038_EX1403_MB.all.mb58.gz 176.57MB Kongsberg multibeam vendor format
0036_20140510_172041_EX1403_MB.all.mb58.gz 176.95MB Kongsberg multibeam vendor format
0037_20140510_192041_EX1403_MB.all.mb58.gz 79.97MB Kongsberg multibeam vendor format
0038_20140510_210625_EX1403_MB.all.mb58.gz 152.2KB Kongsberg multibeam vendor format
0039_20140510_210633_EX1403_MB.all.mb58.gz 159.65MB Kongsberg multibeam vendor format
0040_20140510_230632_EX1403_MB.all.mb58.gz 178.62MB Kongsberg multibeam vendor format
0041_20140511_010635_EX1403_MB.all.mb58.gz 136.03MB Kongsberg multibeam vendor format
0042_20140511_023804_EX1403_MB.all.mb58.gz 179.35MB Kongsberg multibeam vendor format
0043_20140511_043804_EX1403_MB.all.mb58.gz 179.99MB Kongsberg multibeam vendor format
0044_20140511_063802_EX1403_MB.all.mb58.gz 179.85MB Kongsberg multibeam vendor format
0045_20140511_083803_EX1403_MB.all.mb58.gz 179.33MB Kongsberg multibeam vendor format
0046_20140511_103802_EX1403_MB.all.mb58.gz 180.32MB Kongsberg multibeam vendor format
0047_20140511_123801_EX1403_MB.all.mb58.gz 2.99MB Kongsberg multibeam vendor format
0048_20140511_124000_EX1403_MB.all.mb58.gz 3.88MB Kongsberg multibeam vendor format
0049_20140511_124236_EX1403_MB.all.mb58.gz 6.55MB Kongsberg multibeam vendor format
0050_20140511_124703_EX1403_MB.all.mb58.gz 6.56MB Kongsberg multibeam vendor format
0051_20140511_125125_EX1403_MB.all.mb58.gz 6.11MB Kongsberg multibeam vendor format
0052_20140511_125527_EX1403_MB.all.mb58.gz 181.58MB Kongsberg multibeam vendor format
0053_20140511_145530_EX1403_MB.all.mb58.gz 182.78MB Kongsberg multibeam vendor format
0054_20140511_165528_EX1403_MB.all.mb58.gz 183.80MB Kongsberg multibeam vendor format
0055_20140511_185530_EX1403_MB.all.mb58.gz 183.48MB Kongsberg multibeam vendor format
0056_20140511_205530_EX1403_MB.all.mb58.gz 183.38MB Kongsberg multibeam vendor format
0057_20140511_225528_EX1403_MB.all.mb58.gz 98.07MB Kongsberg multibeam vendor format
0058_20140512_000011_EX1403_MB.all.mb58.gz 58.88MB Kongsberg multibeam vendor format
0059_20140512_003938_EX1403_MB.all.mb58.gz 21.60MB Kongsberg multibeam vendor format
0060_20140512_005402_EX1403_MB.all.mb58.gz 181.34MB Kongsberg multibeam vendor format
0061_20140512_025400_EX1403_MB.all.mb58.gz 183.34MB Kongsberg multibeam vendor format
0062_20140512_045401_EX1403_MB.all.mb58.gz 183.93MB Kongsberg multibeam vendor format
0063_20140512_065402_EX1403_MB.all.mb58.gz 183.25MB Kongsberg multibeam vendor format
0064_20140512_085401_EX1403_MB.all.mb58.gz 183.68MB Kongsberg multibeam vendor format
0065_20140512_105400_EX1403_MB.all.mb58.gz 95.18MB Kongsberg multibeam vendor format
0066_20140512_115659_EX1403_MB.all.mb58.gz 18.40MB Kongsberg multibeam vendor format
0067_20140512_120929_EX1403_MB.all.mb58.gz 175.85MB Kongsberg multibeam vendor format
0068_20140512_140931_EX1403_MB.all.mb58.gz 178.07MB Kongsberg multibeam vendor format
0069_20140512_160930_EX1403_MB.all.mb58.gz 180.04MB Kongsberg multibeam vendor format
0070_20140512_180930_EX1403_MB.all.mb58.gz 180.10MB Kongsberg multibeam vendor format
0071_20140512_200928_EX1403_MB.all.mb58.gz 179.92MB Kongsberg multibeam vendor format
0072_20140512_220932_EX1403_MB.all.mb58.gz 164.99MB Kongsberg multibeam vendor format
0073_20140513_000034_EX1403_MB.all.mb58.gz 40.67MB Kongsberg multibeam vendor format
0074_20140513_002806_EX1403_MB.all.mb58.gz 23.19MB Kongsberg multibeam vendor format
0075_20140513_004326_EX1403_MB.all.mb58.gz 181.47MB Kongsberg multibeam vendor format
0076_20140513_024324_EX1403_MB.all.mb58.gz 184.72MB Kongsberg multibeam vendor format
0077_20140513_044326_EX1403_MB.all.mb58.gz 185.92MB Kongsberg multibeam vendor format
0078_20140513_064323_EX1403_MB.all.mb58.gz 180.44MB Kongsberg multibeam vendor format
0079_20140513_084326_EX1403_MB.all.mb58.gz 178.46MB Kongsberg multibeam vendor format
0080_20140513_104326_EX1403_MB.all.mb58.gz 77.15MB Kongsberg multibeam vendor format
0081_20140513_113507_EX1403_MB.all.mb58.gz 22.38MB Kongsberg multibeam vendor format
0082_20140513_114957_EX1403_MB.all.mb58.gz 75.08MB Kongsberg multibeam vendor format
0083_20140513_124015_EX1403_MB.all.mb58.gz 6.78MB Kongsberg multibeam vendor format
0084_20140513_124445_EX1403_MB.all.mb58.gz 180.67MB Kongsberg multibeam vendor format
0085_20140513_144446_EX1403_MB.all.mb58.gz 182.16MB Kongsberg multibeam vendor format
0086_20140513_164445_EX1403_MB.all.mb58.gz 184.16MB Kongsberg multibeam vendor format
0087_20140513_184446_EX1403_MB.all.mb58.gz 186.39MB Kongsberg multibeam vendor format
0088_20140513_204445_EX1403_MB.all.mb58.gz 184.53MB Kongsberg multibeam vendor format
0089_20140513_224447_EX1403_MB.all.mb58.gz 182.86MB Kongsberg multibeam vendor format
0090_20140514_004444_EX1403_MB.all.mb58.gz 74.66MB Kongsberg multibeam vendor format
0091_20140514_013402_EX1403_MB.all.mb58.gz 20.99MB Kongsberg multibeam vendor format
0092_20140514_014751_EX1403_MB.all.mb58.gz 183.68MB Kongsberg multibeam vendor format
0093_20140514_034752_EX1403_MB.all.mb58.gz 186.73MB Kongsberg multibeam vendor format
0094_20140514_054753_EX1403_MB.all.mb58.gz 186.31MB Kongsberg multibeam vendor format
0095_20140514_074749_EX1403_MB.all.mb58.gz 74.46MB Kongsberg multibeam vendor format
0096_20140514_083519_EX1403_MB.all.mb58.gz 18.05MB Kongsberg multibeam vendor format
0097_20140514_084642_EX1403_MB.all.mb58.gz 187.67MB Kongsberg multibeam vendor format
0098_20140514_104643_EX1403_MB.all.mb58.gz 184.33MB Kongsberg multibeam vendor format
0099_20140514_124640_EX1403_MB.all.mb58.gz 189.47MB Kongsberg multibeam vendor format
0100_20140514_144642_EX1403_MB.all.mb58.gz 187.02MB Kongsberg multibeam vendor format
0101_20140514_164641_EX1403_MB.all.mb58.gz 118.87MB Kongsberg multibeam vendor format
0102_20140514_180341_EX1403_MB.all.mb58.gz 20.38MB Kongsberg multibeam vendor format
0103_20140514_181644_EX1403_MB.all.mb58.gz 184.16MB Kongsberg multibeam vendor format
0104_20140514_201646_EX1403_MB.all.mb58.gz 185.89MB Kongsberg multibeam vendor format
0105_20140514_221644_EX1403_MB.all.mb58.gz 184.93MB Kongsberg multibeam vendor format
0106_20140515_001645_EX1403_MB.all.mb58.gz 52.28MB Kongsberg multibeam vendor format
0107_20140515_004924_EX1403_MB.all.mb58.gz 14.55MB Kongsberg multibeam vendor format
0108_20140515_005806_EX1403_MB.all.mb58.gz 166.52MB Kongsberg multibeam vendor format
0109_20140515_024549_EX1403_MB.all.mb58.gz 7.68MB Kongsberg multibeam vendor format
0110_20140515_025048_EX1403_MB.all.mb58.gz 3.74MB Kongsberg multibeam vendor format
0111_20140515_025316_EX1403_MB.all.mb58.gz 179.61MB Kongsberg multibeam vendor format
0112_20140515_045318_EX1403_MB.all.mb58.gz 169.78MB Kongsberg multibeam vendor format
0113_20140515_064640_EX1403_MB.all.mb58.gz 126.42MB Kongsberg multibeam vendor format
0114_20140515_081034_EX1403_MB.all.mb58.gz 14.96MB Kongsberg multibeam vendor format
0115_20140515_082007_EX1403_MB.all.mb58.gz 45.77MB Kongsberg multibeam vendor format
0116_20140515_084943_EX1403_MB.all.mb58.gz 4.14MB Kongsberg multibeam vendor format
0117_20140515_085227_EX1403_MB.all.mb58.gz 29.00MB Kongsberg multibeam vendor format
0118_20140515_091117_EX1403_MB.all.mb58.gz 7.13MB Kongsberg multibeam vendor format
0119_20140515_091555_EX1403_MB.all.mb58.gz 187.00MB Kongsberg multibeam vendor format
0120_20140515_111556_EX1403_MB.all.mb58.gz 139.61MB Kongsberg multibeam vendor format
0121_20140515_131557_EX1403_MB.all.mb58.gz 183.85MB Kongsberg multibeam vendor format
0122_20140515_151556_EX1403_MB.all.mb58.gz 2.66MB Kongsberg multibeam vendor format
0123_20140515_151734_EX1403_MB.all.mb58.gz 44.31MB Kongsberg multibeam vendor format
0124_20140515_154452_EX1403_MB.all.mb58.gz 7.48MB Kongsberg multibeam vendor format
0125_20140515_154941_EX1403_MB.all.mb58.gz 18.22MB Kongsberg multibeam vendor format
0126_20140515_160100_EX1403_MB.all.mb58.gz 6.54MB Kongsberg multibeam vendor format
0127_20140515_160501_EX1403_MB.all.mb58.gz 29.59MB Kongsberg multibeam vendor format
0128_20140515_163249_EX1403_MB.all.mb58.gz 109.04MB Kongsberg multibeam vendor format
0129_20140515_180830_EX1403_MB.all.mb58.gz 28.54MB Kongsberg multibeam vendor format
0130_20140515_183415_EX1403_MB.all.mb58.gz 132.91MB Kongsberg multibeam vendor format
0131_20140515_203415_EX1403_MB.all.mb58.gz 66.85MB Kongsberg multibeam vendor format
0132_20140515_213407_EX1403_MB.all.mb58.gz 29.87MB Kongsberg multibeam vendor format
0133_20140515_220118_EX1403_MB.all.mb58.gz 151.95MB Kongsberg multibeam vendor format
0134_20140516_000119_EX1403_MB.all.mb58.gz 191.75MB Kongsberg multibeam vendor format
0135_20140516_020120_EX1403_MB.all.mb58.gz 189.81MB Kongsberg multibeam vendor format
0136_20140516_040119_EX1403_MB.all.mb58.gz 191.16MB Kongsberg multibeam vendor format
0137_20140516_060121_EX1403_MB.all.mb58.gz 183.03MB Kongsberg multibeam vendor format
0138_20140516_075420_EX1403_MB.all.mb58.gz 248.07MB Kongsberg multibeam vendor format
0139_20140516_095420_EX1403_MB.all.mb58.gz 289.11MB Kongsberg multibeam vendor format
0140_20140516_175333_EX1403_MB.all.mb58.gz 339.70MB Kongsberg multibeam vendor format
0141_20140516_195334_EX1403_MB.all.mb58.gz 12.34MB Kongsberg multibeam vendor format
0142_20140516_200032_EX1403_MB.all.mb58.gz 181.45MB Kongsberg multibeam vendor format
0143_20140516_215625_EX1403_MB.all.mb58.gz 184.73MB Kongsberg multibeam vendor format
0144_20140516_235621_EX1403_MB.all.mb58.gz 182.07MB Kongsberg multibeam vendor format
0145_20140517_015622_EX1403_MB.all.mb58.gz 179.62MB Kongsberg multibeam vendor format
0146_20140517_035624_EX1403_MB.all.mb58.gz 159.23MB Kongsberg multibeam vendor format
0147_20140517_054315_EX1403_MB.all.mb58.gz 1.65MB Kongsberg multibeam vendor format
0148_20140517_074624_EX1403_MB.all.mb58.gz 19.35MB Kongsberg multibeam vendor format
0149_20140517_084810_EX1403_MB.all.mb58.gz 30.77MB Kongsberg multibeam vendor format
0150_20140517_091440_EX1403_MB.all.mb58.gz 90.46MB Kongsberg multibeam vendor format
0151_20140517_104611_EX1403_MB.all.mb58.gz 89.01MB Kongsberg multibeam vendor format
0152_20140517_115552_EX1403_MB.all.mb58.gz 12.96MB Kongsberg multibeam vendor format
0153_20140517_124545_EX1403_MB.all.mb58.gz 96.82MB Kongsberg multibeam vendor format
0154_20140517_142645_EX1403_MB.all.mb58.gz 94.71MB Kongsberg multibeam vendor format
0155_20140517_170429_EX1403_MB.all.mb58.gz 87.37MB Kongsberg multibeam vendor format
0156_20140517_180234_EX1403_MB.all.mb58.gz 98.7KB Kongsberg multibeam vendor format
0157_20140517_190940_EX1403_MB.all.mb58.gz 99.99MB Kongsberg multibeam vendor format
0158_20140517_205122_EX1403_MB.all.mb58.gz 90.85MB Kongsberg multibeam vendor format
0159_20140517_222338_EX1403_MB.all.mb58.gz 94.37MB Kongsberg multibeam vendor format
0160_20140518_011537_EX1403_MB.all.mb58.gz 109.16MB Kongsberg multibeam vendor format
0161_20140518_025954_EX1403_MB.all.mb58.gz 0.54MB Kongsberg multibeam vendor format
0162_20140518_030029_EX1403_MB.all.mb58.gz 90.03MB Kongsberg multibeam vendor format
0163_20140518_042809_EX1403_MB.all.mb58.gz 62.11MB Kongsberg multibeam vendor format
0164_20140518_055719_EX1403_MB.all.mb58.gz 101.15MB Kongsberg multibeam vendor format
0164_20140518_082029_EX1403_MB.all.mb58.gz 245.1KB Kongsberg multibeam vendor format
0165_20140518_082045_EX1403_MB.all.mb58.gz 107.63MB Kongsberg multibeam vendor format
0166_20140518_102046_EX1403_MB.all.mb58.gz 107.38MB Kongsberg multibeam vendor format
0167_20140518_122046_EX1403_MB.all.mb58.gz 106.94MB Kongsberg multibeam vendor format
0168_20140518_142041_EX1403_MB.all.mb58.gz 107.04MB Kongsberg multibeam vendor format
0169_20140518_162043_EX1403_MB.all.mb58.gz 107.71MB Kongsberg multibeam vendor format
0170_20140518_182045_EX1403_MB.all.mb58.gz 111.94MB Kongsberg multibeam vendor format
0171_20140518_202044_EX1403_MB.all.mb58.gz 116.58MB Kongsberg multibeam vendor format
0172_20140518_222045_EX1403_MB.all.mb58.gz 118.34MB Kongsberg multibeam vendor format
0173_20140519_002044_EX1403_MB.all.mb58.gz 112.73MB Kongsberg multibeam vendor format
0174_20140519_022044_EX1403_MB.all.mb58.gz 106.91MB Kongsberg multibeam vendor format
0175_20140519_042043_EX1403_MB.all.mb58.gz 109.92MB Kongsberg multibeam vendor format
0176_20140519_062045_EX1403_MB.all.mb58.gz 181.78MB Kongsberg multibeam vendor format
0177_20140519_082042_EX1403_MB.all.mb58.gz 210.38MB Kongsberg multibeam vendor format
0178_20140519_102043_EX1403_MB.all.mb58.gz 175.88MB Kongsberg multibeam vendor format
0179_20140519_115642_EX1403_MB.all.mb58.gz 105.89MB Kongsberg multibeam vendor format
0180_20140519_123004_EX1403_MB.all.mb58.gz 15.31MB Kongsberg multibeam vendor format
0181_20140519_123429_EX1403_MB.all.mb58.gz 103.18MB Kongsberg multibeam vendor format
0182_20140519_130812_EX1403_MB.all.mb58.gz 16.51MB Kongsberg multibeam vendor format
0183_20140519_131409_EX1403_MB.all.mb58.gz 117.98MB Kongsberg multibeam vendor format
0184_20140519_135430_EX1403_MB.all.mb58.gz 20.27MB Kongsberg multibeam vendor format
0185_20140519_140054_EX1403_MB.all.mb58.gz 119.56MB Kongsberg multibeam vendor format
0186_20140519_144427_EX1403_MB.all.mb58.gz 28.08MB Kongsberg multibeam vendor format
0187_20140519_145531_EX1403_MB.all.mb58.gz 119.21MB Kongsberg multibeam vendor format
0188_20140519_154138_EX1403_MB.all.mb58.gz 17.83MB Kongsberg multibeam vendor format
0189_20140519_154754_EX1403_MB.all.mb58.gz 102.59MB Kongsberg multibeam vendor format
0190_20140519_163000_EX1403_MB.all.mb58.gz 29.31MB Kongsberg multibeam vendor format
0191_20140519_164203_EX1403_MB.all.mb58.gz 155.61MB Kongsberg multibeam vendor format
0192_20140519_173345_EX1403_MB.all.mb58.gz 50.07MB Kongsberg multibeam vendor format
0193_20140519_175204_EX1403_MB.all.mb58.gz 84.50MB Kongsberg multibeam vendor format
0194_20140519_182238_EX1403_MB.all.mb58.gz 119.83MB Kongsberg multibeam vendor format
0195_20140519_191455_EX1403_MB.all.mb58.gz 18.50MB Kongsberg multibeam vendor format
0196_20140519_192213_EX1403_MB.all.mb58.gz 109.47MB Kongsberg multibeam vendor format
0197_20140519_201409_EX1403_MB.all.mb58.gz 13.88MB Kongsberg multibeam vendor format
0198_20140519_202048_EX1403_MB.all.mb58.gz 82.02MB Kongsberg multibeam vendor format
0199_20140519_210026_EX1403_MB.all.mb58.gz 30.27MB Kongsberg multibeam vendor format
0200_20140519_211403_EX1403_MB.all.mb58.gz 88.98MB Kongsberg multibeam vendor format
0201_20140519_215714_EX1403_MB.all.mb58.gz 18.06MB Kongsberg multibeam vendor format
0202_20140519_220613_EX1403_MB.all.mb58.gz 92.51MB Kongsberg multibeam vendor format
0203_20140519_225140_EX1403_MB.all.mb58.gz 13.85MB Kongsberg multibeam vendor format
0204_20140519_225804_EX1403_MB.all.mb58.gz 108.77MB Kongsberg multibeam vendor format
0205_20140519_234027_EX1403_MB.all.mb58.gz 24.24MB Kongsberg multibeam vendor format
0206_20140519_234814_EX1403_MB.all.mb58.gz 36.17MB Kongsberg multibeam vendor format
0207_20140520_000151_EX1403_MB.all.mb58.gz 16.23MB Kongsberg multibeam vendor format
0208_20140520_000918_EX1403_MB.all.mb58.gz 38.52MB Kongsberg multibeam vendor format
0209_20140520_002526_EX1403_MB.all.mb58.gz 28.96MB Kongsberg multibeam vendor format
0210_20140520_003655_EX1403_MB.all.mb58.gz 26.36MB Kongsberg multibeam vendor format
0211_20140520_004757_EX1403_MB.all.mb58.gz 16.92MB Kongsberg multibeam vendor format
0212_20140520_005557_EX1403_MB.all.mb58.gz 20.42MB Kongsberg multibeam vendor format
0213_20140520_010527_EX1403_MB.all.mb58.gz 19.18MB Kongsberg multibeam vendor format
0214_20140520_011417_EX1403_MB.all.mb58.gz 30.69MB Kongsberg multibeam vendor format
0215_20140520_012648_EX1403_MB.all.mb58.gz 19.35MB Kongsberg multibeam vendor format
0216_20140520_013406_EX1403_MB.all.mb58.gz 30.12MB Kongsberg multibeam vendor format
0217_20140520_014531_EX1403_MB.all.mb58.gz 19.21MB Kongsberg multibeam vendor format
0218_20140520_015220_EX1403_MB.all.mb58.gz 28.86MB Kongsberg multibeam vendor format
0219_20140520_020320_EX1403_MB.all.mb58.gz 338.15MB Kongsberg multibeam vendor format
0220_20140520_040321_EX1403_MB.all.mb58.gz 111.46MB Kongsberg multibeam vendor format
0221_20140520_053712_EX1403_MB.all.mb58.gz 99.26MB Kongsberg multibeam vendor format
0222_20140520_073712_EX1403_MB.all.mb58.gz 66.08MB Kongsberg multibeam vendor format
0223_20140520_084150_EX1403_MB.all.mb58.gz 285.49MB Kongsberg multibeam vendor format
0224_20140520_104149_EX1403_MB.all.mb58.gz 193.13MB Kongsberg multibeam vendor format
0225_20140520_124150_EX1403_MB.all.mb58.gz 162.46MB Kongsberg multibeam vendor format
0226_20140520_144149_EX1403_MB.all.mb58.gz 120.44MB Kongsberg multibeam vendor format
0227_20140520_164150_EX1403_MB.all.mb58.gz 124.31MB Kongsberg multibeam vendor format
0228_20140520_184153_EX1403_MB.all.mb58.gz 112.77MB Kongsberg multibeam vendor format
0229_20140520_204155_EX1403_MB.all.mb58.gz 113.57MB Kongsberg multibeam vendor format
0230_20140520_224151_EX1403_MB.all.mb58.gz 34.08MB Kongsberg multibeam vendor format
0231_20140520_233609_EX1403_MB.all.mb58.gz 23.21MB Kongsberg multibeam vendor format
0232_20140521_000000_EX1403_MB.all.mb58.gz 34.30MB Kongsberg multibeam vendor format
0234_20140521_003452_EX1403_MB.all.mb58.gz 3.71MB Kongsberg multibeam vendor format
0235_20140521_004045_EX1403_MB.all.mb58.gz 259.42MB Kongsberg multibeam vendor format
0236_20140521_024029_EX1403_MB.all.mb58.gz 209.05MB Kongsberg multibeam vendor format
0237_20140521_044029_EX1403_MB.all.mb58.gz 7.91MB Kongsberg multibeam vendor format
0238_20140521_044407_EX1403_MB.all.mb58.gz 215.13MB Kongsberg multibeam vendor format
0239_20140521_064407_EX1403_MB.all.mb58.gz 258.25MB Kongsberg multibeam vendor format
0240_20140521_084407_EX1403_MB.all.mb58.gz 211.80MB Kongsberg multibeam vendor format
0241_20140521_104408_EX1403_MB.all.mb58.gz 331.58MB Kongsberg multibeam vendor format
0242_20140521_124407_EX1403_MB.all.mb58.gz 353.65MB Kongsberg multibeam vendor format
0243_20140521_144407_EX1403_MB.all.mb58.gz 374.21MB Kongsberg multibeam vendor format
0244_20140521_164406_EX1403_MB.all.mb58.gz 281.19MB Kongsberg multibeam vendor format
0245_20140521_184407_EX1403_MB.all.mb58.gz 267.02MB Kongsberg multibeam vendor format
0246_20140521_204409_EX1403_MB.all.mb58.gz 1.36MB Kongsberg multibeam vendor format
0247_20140521_211115_EX1403_MB.all.mb58.gz 30.97MB Kongsberg multibeam vendor format
0249_20140521_213534_EX1403_MB.all.mb58.gz 200.37MB Kongsberg multibeam vendor format
0250_20140521_233527_EX1403_MB.all.mb58.gz 27.49MB Kongsberg multibeam vendor format
0251_20140522_000008_EX1403_MB.all.mb58.gz 225.34MB Kongsberg multibeam vendor format

Full Resolution Bathymetry (processed): 244

Files File Size Description
EX1403_Okeanos_March_2011_2014-128_0000_20140508_000401_EX1403_MB.txt.mb163 90.78MB Generic YXZ sounding format
EX1403_Okeanos_March_2011_2014-128_0001_20140508_020401_EX1403_MB.txt.mb163 59.13MB Generic YXZ sounding format
EX1403_Okeanos_March_2011_2014-128_0002_20140508_025947_EX1403_MB.txt.mb163 123.80MB Generic YXZ sounding format
EX1403_Okeanos_March_2011_2014-128_0003_20140508_045947_EX1403_MB.txt.mb163 119.08MB Generic YXZ sounding format
EX1403_Okeanos_March_2011_2014-128_0004_20140508_065947_EX1403_MB.txt.mb163 113.20MB Generic YXZ sounding format
EX1403_Okeanos_March_2011_2014-128_0005_20140508_085947_EX1403_MB.txt.mb163 109.21MB Generic YXZ sounding format
EX1403_Okeanos_March_2011_2014-128_0006_20140508_105947_EX1403_MB.txt.mb163 33.61MB Generic YXZ sounding format
EX1403_Okeanos_March_2011_2014-128_0007_20140508_125949_EX1403_MB.txt.mb163 18.32MB Generic YXZ sounding format
EX1403_Okeanos_March_2011_2014-128_0008_20140508_145947_EX1403_MB.txt.mb163 17.84MB Generic YXZ sounding format
EX1403_Okeanos_March_2011_2014-128_0009_20140508_165948_EX1403_MB.txt.mb163 14.64MB Generic YXZ sounding format
EX1403_Okeanos_March_2011_2014-128_0010_20140508_185947_EX1403_MB.txt.mb163 13.42MB Generic YXZ sounding format
EX1403_Okeanos_March_2011_2014-128_0011_20140508_205947_EX1403_MB.txt.mb163 8.90MB Generic YXZ sounding format
EX1403_Okeanos_March_2011_2014-129_0012_20140508_225948_EX1403_MB.txt.mb163 13.05MB Generic YXZ sounding format
EX1403_Okeanos_March_2011_2014-129_0013_20140509_000511_EX1403_MB.txt.mb163 14.61MB Generic YXZ sounding format
EX1403_Okeanos_March_2011_2014-129_0014_20140509_020510_EX1403_MB.txt.mb163 21.82MB Generic YXZ sounding format
EX1403_Okeanos_March_2011_2014-129_0015_20140509_040511_EX1403_MB.txt.mb163 29.41MB Generic YXZ sounding format
EX1403_Okeanos_March_2011_2014-129_0016_20140509_060511_EX1403_MB.txt.mb163 12.03MB Generic YXZ sounding format
EX1403_Okeanos_March_2011_2014-129_0017_20140509_070817_EX1403_MB.txt.mb163 1.33MB Generic YXZ sounding format
EX1403_Okeanos_March_2011_2014-129_0018_20140509_071946_EX1403_MB.txt.mb163 1.18MB Generic YXZ sounding format
EX1403_Okeanos_March_2011_2014-129_0020_20140509_073608_EX1403_MB.txt.mb163 25.84MB Generic YXZ sounding format
EX1403_Okeanos_March_2011_2014-129_0021_20140509_093608_EX1403_MB.txt.mb163 38.21MB Generic YXZ sounding format
EX1403_Okeanos_March_2011_2014-129_0022_20140509_113607_EX1403_MB.txt.mb163 17.94MB Generic YXZ sounding format
EX1403_Okeanos_March_2011_2014-129_0023_20140509_133608_EX1403_MB.txt.mb163 17.85MB Generic YXZ sounding format
EX1403_Okeanos_March_2011_2014-129_0024_20140509_153608_EX1403_MB.txt.mb163 16.48MB Generic YXZ sounding format
EX1403_Okeanos_March_2011_2014-129_0025_20140509_173609_EX1403_MB.txt.mb163 16.75MB Generic YXZ sounding format
EX1403_Okeanos_March_2011_2014-129_0026_20140509_193609_EX1403_MB.txt.mb163 16.92MB Generic YXZ sounding format
EX1403_Okeanos_March_2011_2014-129_0027_20140509_213609_EX1403_MB.txt.mb163 17.83MB Generic YXZ sounding format
EX1403_Okeanos_March_2011_2014-130_0028_20140509_233607_EX1403_MB.txt.mb163 16.68MB Generic YXZ sounding format
EX1403_Okeanos_March_2011_2014-130_0029_20140510_013608_EX1403_MB.txt.mb163 18.58MB Generic YXZ sounding format
EX1403_Okeanos_March_2011_2014-130_0030_20140510_033607_EX1403_MB.txt.mb163 19.91MB Generic YXZ sounding format
EX1403_Okeanos_March_2011_2014-130_0031_20140510_053608_EX1403_MB.txt.mb163 18.48MB Generic YXZ sounding format
EX1403_Okeanos_March_2011_2014-130_0032_20140510_073609_EX1403_MB.txt.mb163 14.73MB Generic YXZ sounding format
EX1403_Okeanos_March_2011_2014-130_0033_20140510_093611_EX1403_MB.txt.mb163 10.23MB Generic YXZ sounding format
EX1403_Okeanos_March_2011_2014-130_0034_20140510_132038_EX1403_MB.txt.mb163 14.31MB Generic YXZ sounding format
EX1403_Okeanos_March_2011_2014-130_0035_20140510_152038_EX1403_MB.txt.mb163 13.70MB Generic YXZ sounding format
EX1403_Okeanos_March_2011_2014-130_0036_20140510_172041_EX1403_MB.txt.mb163 14.23MB Generic YXZ sounding format
EX1403_Okeanos_March_2011_2014-130_0037_20140510_192041_EX1403_MB.txt.mb163 6.63MB Generic YXZ sounding format
EX1403_Okeanos_March_2011_2014-130_0039_20140510_210633_EX1403_MB.txt.mb163 14.48MB Generic YXZ sounding format
EX1403_Okeanos_March_2011_2014-131_0040_20140510_230632_EX1403_MB.txt.mb163 14.56MB Generic YXZ sounding format
EX1403_Okeanos_March_2011_2014-131_0041_20140511_010635_EX1403_MB.txt.mb163 10.90MB Generic YXZ sounding format
EX1403_Okeanos_March_2011_2014-131_0042_20140511_023804_EX1403_MB.txt.mb163 14.59MB Generic YXZ sounding format
EX1403_Okeanos_March_2011_2014-131_0043_20140511_043804_EX1403_MB.txt.mb163 15.02MB Generic YXZ sounding format
EX1403_Okeanos_March_2011_2014-131_0044_20140511_063802_EX1403_MB.txt.mb163 14.80MB Generic YXZ sounding format
EX1403_Okeanos_March_2011_2014-131_0045_20140511_083803_EX1403_MB.txt.mb163 14.91MB Generic YXZ sounding format
EX1403_Okeanos_March_2011_2014-131_0046_20140511_103802_EX1403_MB.txt.mb163 14.58MB Generic YXZ sounding format
EX1403_Okeanos_March_2011_2014-131_0047_20140511_123801_EX1403_MB.txt.mb163 226.3KB Generic YXZ sounding format
EX1403_Okeanos_March_2011_2014-131_0048_20140511_124000_EX1403_MB.txt.mb163 309.7KB Generic YXZ sounding format
EX1403_Okeanos_March_2011_2014-131_0049_20140511_124236_EX1403_MB.txt.mb163 509.4KB Generic YXZ sounding format
EX1403_Okeanos_March_2011_2014-131_0050_20140511_124703_EX1403_MB.txt.mb163 0.52MB Generic YXZ sounding format
EX1403_Okeanos_March_2011_2014-131_0051_20140511_125125_EX1403_MB.txt.mb163 0.51MB Generic YXZ sounding format
EX1403_Okeanos_March_2011_2014-131_0052_20140511_125527_EX1403_MB.txt.mb163 16.77MB Generic YXZ sounding format
EX1403_Okeanos_March_2011_2014-131_0053_20140511_145530_EX1403_MB.txt.mb163 17.67MB Generic YXZ sounding format
EX1403_Okeanos_March_2011_2014-131_0054_20140511_165528_EX1403_MB.txt.mb163 17.23MB Generic YXZ sounding format
EX1403_Okeanos_March_2011_2014-131_0055_20140511_185530_EX1403_MB.txt.mb163 17.52MB Generic YXZ sounding format
EX1403_Okeanos_March_2011_2014-131_0056_20140511_205530_EX1403_MB.txt.mb163 17.62MB Generic YXZ sounding format
EX1403_Okeanos_March_2011_2014-131_0057_20140511_225528_EX1403_MB.txt.mb163 9.25MB Generic YXZ sounding format
EX1403_Okeanos_March_2011_2014-132_0058_20140512_000011_EX1403_MB.txt.mb163 5.45MB Generic YXZ sounding format
EX1403_Okeanos_March_2011_2014-132_0059_20140512_003938_EX1403_MB.txt.mb163 1.99MB Generic YXZ sounding format
EX1403_Okeanos_March_2011_2014-132_0060_20140512_005402_EX1403_MB.txt.mb163 17.19MB Generic YXZ sounding format
EX1403_Okeanos_March_2011_2014-132_0061_20140512_025400_EX1403_MB.txt.mb163 17.67MB Generic YXZ sounding format
EX1403_Okeanos_March_2011_2014-132_0062_20140512_045401_EX1403_MB.txt.mb163 18.00MB Generic YXZ sounding format
EX1403_Okeanos_March_2011_2014-132_0063_20140512_065402_EX1403_MB.txt.mb163 17.96MB Generic YXZ sounding format
EX1403_Okeanos_March_2011_2014-132_0064_20140512_085401_EX1403_MB.txt.mb163 18.07MB Generic YXZ sounding format
EX1403_Okeanos_March_2011_2014-132_0065_20140512_105400_EX1403_MB.txt.mb163 9.14MB Generic YXZ sounding format
EX1403_Okeanos_March_2011_2014-132_0066_20140512_115659_EX1403_MB.txt.mb163 1.66MB Generic YXZ sounding format
EX1403_Okeanos_March_2011_2014-132_0067_20140512_120929_EX1403_MB.txt.mb163 16.28MB Generic YXZ sounding format
EX1403_Okeanos_March_2011_2014-132_0068_20140512_140931_EX1403_MB.txt.mb163 15.92MB Generic YXZ sounding format
EX1403_Okeanos_March_2011_2014-132_0069_20140512_160930_EX1403_MB.txt.mb163 15.94MB Generic YXZ sounding format
EX1403_Okeanos_March_2011_2014-132_0070_20140512_180930_EX1403_MB.txt.mb163 16.06MB Generic YXZ sounding format
EX1403_Okeanos_March_2011_2014-132_0071_20140512_200928_EX1403_MB.txt.mb163 15.79MB Generic YXZ sounding format
EX1403_Okeanos_March_2011_2014-132_0072_20140512_220932_EX1403_MB.txt.mb163 14.09MB Generic YXZ sounding format
EX1403_Okeanos_March_2011_2014-132_0073_20140513_000034_EX1403_MB.txt.mb163 3.38MB Generic YXZ sounding format
EX1403_Okeanos_March_2011_2014-132_0074_20140513_002806_EX1403_MB.txt.mb163 2.02MB Generic YXZ sounding format
EX1403_Okeanos_March_2011_2014-133_0075_20140513_004326_EX1403_MB.txt.mb163 15.89MB Generic YXZ sounding format
EX1403_Okeanos_March_2011_2014-133_0076_20140513_024324_EX1403_MB.txt.mb163 15.99MB Generic YXZ sounding format
EX1403_Okeanos_March_2011_2014-133_0077_20140513_044326_EX1403_MB.txt.mb163 16.17MB Generic YXZ sounding format
EX1403_Okeanos_March_2011_2014-133_0078_20140513_064323_EX1403_MB.txt.mb163 15.25MB Generic YXZ sounding format
EX1403_Okeanos_March_2011_2014-133_0079_20140513_084326_EX1403_MB.txt.mb163 14.91MB Generic YXZ sounding format
EX1403_Okeanos_March_2011_2014-133_0080_20140513_104326_EX1403_MB.txt.mb163 6.44MB Generic YXZ sounding format
EX1403_Okeanos_March_2011_2014-133_0081_20140513_113507_EX1403_MB.txt.mb163 1.89MB Generic YXZ sounding format
EX1403_Okeanos_March_2011_2014-133_0082_20140513_114957_EX1403_MB.txt.mb163 6.12MB Generic YXZ sounding format
EX1403_Okeanos_March_2011_2014-133_0083_20140513_124015_EX1403_MB.txt.mb163 0.58MB Generic YXZ sounding format
EX1403_Okeanos_March_2011_2014-133_0084_20140513_124445_EX1403_MB.txt.mb163 15.17MB Generic YXZ sounding format
EX1403_Okeanos_March_2011_2014-133_0085_20140513_144446_EX1403_MB.txt.mb163 15.48MB Generic YXZ sounding format
EX1403_Okeanos_March_2011_2014-133_0086_20140513_164445_EX1403_MB.txt.mb163 15.91MB Generic YXZ sounding format
EX1403_Okeanos_March_2011_2014-133_0087_20140513_184446_EX1403_MB.txt.mb163 16.25MB Generic YXZ sounding format
EX1403_Okeanos_March_2011_2014-133_0088_20140513_204445_EX1403_MB.txt.mb163 15.68MB Generic YXZ sounding format
EX1403_Okeanos_March_2011_2014-133_0089_20140513_224447_EX1403_MB.txt.mb163 15.19MB Generic YXZ sounding format
EX1403_Okeanos_March_2011_2014-134_0090_20140514_004444_EX1403_MB.txt.mb163 6.04MB Generic YXZ sounding format
EX1403_Okeanos_March_2011_2014-134_0091_20140514_013402_EX1403_MB.txt.mb163 1.81MB Generic YXZ sounding format
EX1403_Okeanos_March_2011_2014-134_0092_20140514_014751_EX1403_MB.txt.mb163 14.96MB Generic YXZ sounding format
EX1403_Okeanos_March_2011_2014-134_0093_20140514_034752_EX1403_MB.txt.mb163 15.05MB Generic YXZ sounding format
EX1403_Okeanos_March_2011_2014-134_0094_20140514_054753_EX1403_MB.txt.mb163 15.14MB Generic YXZ sounding format
EX1403_Okeanos_March_2011_2014-134_0095_20140514_074749_EX1403_MB.txt.mb163 6.33MB Generic YXZ sounding format
EX1403_Okeanos_March_2011_2014-134_0096_20140514_083519_EX1403_MB.txt.mb163 1.63MB Generic YXZ sounding format
EX1403_Okeanos_March_2011_2014-134_0097_20140514_084642_EX1403_MB.txt.mb163 16.40MB Generic YXZ sounding format
EX1403_Okeanos_March_2011_2014-134_0098_20140514_104643_EX1403_MB.txt.mb163 15.36MB Generic YXZ sounding format
EX1403_Okeanos_March_2011_2014-134_0099_20140514_124640_EX1403_MB.txt.mb163 16.01MB Generic YXZ sounding format
EX1403_Okeanos_March_2011_2014-134_0100_20140514_144642_EX1403_MB.txt.mb163 16.41MB Generic YXZ sounding format
EX1403_Okeanos_March_2011_2014-134_0101_20140514_164641_EX1403_MB.txt.mb163 11.01MB Generic YXZ sounding format
EX1403_Okeanos_March_2011_2014-134_0102_20140514_180341_EX1403_MB.txt.mb163 1.88MB Generic YXZ sounding format
EX1403_Okeanos_March_2011_2014-134_0103_20140514_181644_EX1403_MB.txt.mb163 16.30MB Generic YXZ sounding format
EX1403_Okeanos_March_2011_2014-134_0104_20140514_201646_EX1403_MB.txt.mb163 15.86MB Generic YXZ sounding format
EX1403_Okeanos_March_2011_2014-134_0105_20140514_221644_EX1403_MB.txt.mb163 15.98MB Generic YXZ sounding format
EX1403_Okeanos_March_2011_2014-135_0106_20140515_001645_EX1403_MB.txt.mb163 4.88MB Generic YXZ sounding format
EX1403_Okeanos_March_2011_2014-135_0107_20140515_004924_EX1403_MB.txt.mb163 1.35MB Generic YXZ sounding format
EX1403_Okeanos_March_2011_2014-135_0108_20140515_005806_EX1403_MB.txt.mb163 14.65MB Generic YXZ sounding format
EX1403_Okeanos_March_2011_2014-135_0109_20140515_024549_EX1403_MB.txt.mb163 0.67MB Generic YXZ sounding format
EX1403_Okeanos_March_2011_2014-135_0110_20140515_025048_EX1403_MB.txt.mb163 345.7KB Generic YXZ sounding format
EX1403_Okeanos_March_2011_2014-135_0111_20140515_025316_EX1403_MB.txt.mb163 14.48MB Generic YXZ sounding format
EX1403_Okeanos_March_2011_2014-135_0112_20140515_045318_EX1403_MB.txt.mb163 13.77MB Generic YXZ sounding format
EX1403_Okeanos_March_2011_2014-135_0113_20140515_064640_EX1403_MB.txt.mb163 10.19MB Generic YXZ sounding format
EX1403_Okeanos_March_2011_2014-135_0114_20140515_081034_EX1403_MB.txt.mb163 1.33MB Generic YXZ sounding format
EX1403_Okeanos_March_2011_2014-135_0115_20140515_082007_EX1403_MB.txt.mb163 3.93MB Generic YXZ sounding format
EX1403_Okeanos_March_2011_2014-135_0116_20140515_084943_EX1403_MB.txt.mb163 367.3KB Generic YXZ sounding format
EX1403_Okeanos_March_2011_2014-135_0117_20140515_085227_EX1403_MB.txt.mb163 2.48MB Generic YXZ sounding format
EX1403_Okeanos_March_2011_2014-135_0118_20140515_091117_EX1403_MB.txt.mb163 0.65MB Generic YXZ sounding format
EX1403_Okeanos_March_2011_2014-135_0119_20140515_091555_EX1403_MB.txt.mb163 16.04MB Generic YXZ sounding format
EX1403_Okeanos_March_2011_2014-135_0120_20140515_111556_EX1403_MB.txt.mb163 15.42MB Generic YXZ sounding format
EX1403_Okeanos_March_2011_2014-135_0121_20140515_131557_EX1403_MB.txt.mb163 18.50MB Generic YXZ sounding format
EX1403_Okeanos_March_2011_2014-135_0122_20140515_151556_EX1403_MB.txt.mb163 282.8KB Generic YXZ sounding format
EX1403_Okeanos_March_2011_2014-135_0123_20140515_151734_EX1403_MB.txt.mb163 4.58MB Generic YXZ sounding format
EX1403_Okeanos_March_2011_2014-135_0124_20140515_154452_EX1403_MB.txt.mb163 0.68MB Generic YXZ sounding format
EX1403_Okeanos_March_2011_2014-135_0125_20140515_154941_EX1403_MB.txt.mb163 1.78MB Generic YXZ sounding format
EX1403_Okeanos_March_2011_2014-135_0126_20140515_160100_EX1403_MB.txt.mb163 0.62MB Generic YXZ sounding format
EX1403_Okeanos_March_2011_2014-135_0127_20140515_160501_EX1403_MB.txt.mb163 2.78MB Generic YXZ sounding format
EX1403_Okeanos_March_2011_2014-135_0128_20140515_163249_EX1403_MB.txt.mb163 11.46MB Generic YXZ sounding format
EX1403_Okeanos_March_2011_2014-135_0129_20140515_180830_EX1403_MB.txt.mb163 2.85MB Generic YXZ sounding format
EX1403_Okeanos_March_2011_2014-135_0130_20140515_183415_EX1403_MB.txt.mb163 14.31MB Generic YXZ sounding format
EX1403_Okeanos_March_2011_2014-135_0131_20140515_203415_EX1403_MB.txt.mb163 7.18MB Generic YXZ sounding format
EX1403_Okeanos_March_2011_2014-135_0132_20140515_213407_EX1403_MB.txt.mb163 3.32MB Generic YXZ sounding format
EX1403_Okeanos_March_2011_2014-135_0133_20140515_220118_EX1403_MB.txt.mb163 14.60MB Generic YXZ sounding format
EX1403_Okeanos_March_2011_2014-136_0134_20140516_000119_EX1403_MB.txt.mb163 17.59MB Generic YXZ sounding format
EX1403_Okeanos_March_2011_2014-136_0135_20140516_020120_EX1403_MB.txt.mb163 17.11MB Generic YXZ sounding format
EX1403_Okeanos_March_2011_2014-136_0136_20140516_040119_EX1403_MB.txt.mb163 17.74MB Generic YXZ sounding format
EX1403_Okeanos_March_2011_2014-136_0137_20140516_060121_EX1403_MB.txt.mb163 17.83MB Generic YXZ sounding format
EX1403_Okeanos_March_2011_2014-136_0138_20140516_075420_EX1403_MB.txt.mb163 33.06MB Generic YXZ sounding format
EX1403_Okeanos_March_2011_2014-136_0139_20140516_095420_EX1403_MB.txt.mb163 56.74MB Generic YXZ sounding format
EX1403_Okeanos_March_2011_2014-136_0140_20140516_175333_EX1403_MB.txt.mb163 54.53MB Generic YXZ sounding format
EX1403_Okeanos_March_2011_2014-136_0141_20140516_195334_EX1403_MB.txt.mb163 1.21MB Generic YXZ sounding format
EX1403_Okeanos_March_2011_2014-136_0142_20140516_200032_EX1403_MB.txt.mb163 14.72MB Generic YXZ sounding format
EX1403_Okeanos_March_2011_2014-136_0143_20140516_215625_EX1403_MB.txt.mb163 16.27MB Generic YXZ sounding format
EX1403_Okeanos_March_2011_2014-136_0144_20140516_235621_EX1403_MB.txt.mb163 15.94MB Generic YXZ sounding format
EX1403_Okeanos_March_2011_2014-137_0145_20140517_015622_EX1403_MB.txt.mb163 15.64MB Generic YXZ sounding format
EX1403_Okeanos_March_2011_2014-137_0146_20140517_035624_EX1403_MB.txt.mb163 13.38MB Generic YXZ sounding format
EX1403_Okeanos_March_2011_2014-137_0150_20140517_091440_EX1403_MB.txt.mb163 7.03MB Generic YXZ sounding format
EX1403_Okeanos_March_2011_2014-137_0151_20140517_104611_EX1403_MB.txt.mb163 7.50MB Generic YXZ sounding format
EX1403_Okeanos_March_2011_2014-137_0152_20140517_115552_EX1403_MB.txt.mb163 1.08MB Generic YXZ sounding format
EX1403_Okeanos_March_2011_2014-137_0153_20140517_124545_EX1403_MB.txt.mb163 7.98MB Generic YXZ sounding format
EX1403_Okeanos_March_2011_2014-137_0154_20140517_142645_EX1403_MB.txt.mb163 8.04MB Generic YXZ sounding format
EX1403_Okeanos_March_2011_2014-137_0155_20140517_170429_EX1403_MB.txt.mb163 7.19MB Generic YXZ sounding format
EX1403_Okeanos_March_2011_2014-137_0157_20140517_190940_EX1403_MB.txt.mb163 8.05MB Generic YXZ sounding format
EX1403_Okeanos_March_2011_2014-137_0158_20140517_205122_EX1403_MB.txt.mb163 7.31MB Generic YXZ sounding format
EX1403_Okeanos_March_2011_2014-137_0159_20140517_222338_EX1403_MB.txt.mb163 7.73MB Generic YXZ sounding format
EX1403_Okeanos_March_2011_2014-138_0160_20140518_011537_EX1403_MB.txt.mb163 9.18MB Generic YXZ sounding format
EX1403_Okeanos_March_2011_2014-138_0161_20140518_025954_EX1403_MB.txt.mb163 39.3KB Generic YXZ sounding format
EX1403_Okeanos_March_2011_2014-138_0162_20140518_030029_EX1403_MB.txt.mb163 7.37MB Generic YXZ sounding format
EX1403_Okeanos_March_2011_2014-138_0163_20140518_042809_EX1403_MB.txt.mb163 5.44MB Generic YXZ sounding format
EX1403_Okeanos_March_2011_2014-138_0164_20140518_055719_EX1403_MB.txt.mb163 7.96MB Generic YXZ sounding format
EX1403_Okeanos_March_2011_2014-138_0165_20140518_082045_EX1403_MB.txt.mb163 8.05MB Generic YXZ sounding format
EX1403_Okeanos_March_2011_2014-138_0166_20140518_102046_EX1403_MB.txt.mb163 7.95MB Generic YXZ sounding format
EX1403_Okeanos_March_2011_2014-138_0167_20140518_122046_EX1403_MB.txt.mb163 7.93MB Generic YXZ sounding format
EX1403_Okeanos_March_2011_2014-138_0168_20140518_142041_EX1403_MB.txt.mb163 7.95MB Generic YXZ sounding format
EX1403_Okeanos_March_2011_2014-138_0169_20140518_162043_EX1403_MB.txt.mb163 8.26MB Generic YXZ sounding format
EX1403_Okeanos_March_2011_2014-138_0170_20140518_182045_EX1403_MB.txt.mb163 9.15MB Generic YXZ sounding format
EX1403_Okeanos_March_2011_2014-138_0171_20140518_202044_EX1403_MB.txt.mb163 9.95MB Generic YXZ sounding format
EX1403_Okeanos_March_2011_2014-138_0172_20140518_222045_EX1403_MB.txt.mb163 10.76MB Generic YXZ sounding format
EX1403_Okeanos_March_2011_2014-139_0173_20140519_002044_EX1403_MB.txt.mb163 9.27MB Generic YXZ sounding format
EX1403_Okeanos_March_2011_2014-139_0174_20140519_022044_EX1403_MB.txt.mb163 8.28MB Generic YXZ sounding format
EX1403_Okeanos_March_2011_2014-139_0175_20140519_042043_EX1403_MB.txt.mb163 9.04MB Generic YXZ sounding format
EX1403_Okeanos_March_2011_2014-139_0176_20140519_062045_EX1403_MB.txt.mb163 17.26MB Generic YXZ sounding format
EX1403_Okeanos_March_2011_2014-139_0177_20140519_082042_EX1403_MB.txt.mb163 23.04MB Generic YXZ sounding format
EX1403_Okeanos_March_2011_2014-139_0178_20140519_102043_EX1403_MB.txt.mb163 21.66MB Generic YXZ sounding format
EX1403_Okeanos_March_2011_2014-139_0179_20140519_115642_EX1403_MB.txt.mb163 20.32MB Generic YXZ sounding format
EX1403_Okeanos_March_2011_2014-139_0180_20140519_123004_EX1403_MB.txt.mb163 2.84MB Generic YXZ sounding format
EX1403_Okeanos_March_2011_2014-139_0181_20140519_123429_EX1403_MB.txt.mb163 19.39MB Generic YXZ sounding format
EX1403_Okeanos_March_2011_2014-139_0182_20140519_130812_EX1403_MB.txt.mb163 2.68MB Generic YXZ sounding format
EX1403_Okeanos_March_2011_2014-139_0183_20140519_131409_EX1403_MB.txt.mb163 21.56MB Generic YXZ sounding format
EX1403_Okeanos_March_2011_2014-139_0184_20140519_135430_EX1403_MB.txt.mb163 3.61MB Generic YXZ sounding format
EX1403_Okeanos_March_2011_2014-139_0185_20140519_140054_EX1403_MB.txt.mb163 20.90MB Generic YXZ sounding format
EX1403_Okeanos_March_2011_2014-139_0186_20140519_144427_EX1403_MB.txt.mb163 4.48MB Generic YXZ sounding format
EX1403_Okeanos_March_2011_2014-139_0187_20140519_145531_EX1403_MB.txt.mb163 19.96MB Generic YXZ sounding format
EX1403_Okeanos_March_2011_2014-139_0188_20140519_154138_EX1403_MB.txt.mb163 3.02MB Generic YXZ sounding format
EX1403_Okeanos_March_2011_2014-139_0189_20140519_154754_EX1403_MB.txt.mb163 16.34MB Generic YXZ sounding format
EX1403_Okeanos_March_2011_2014-139_0190_20140519_163000_EX1403_MB.txt.mb163 4.46MB Generic YXZ sounding format
EX1403_Okeanos_March_2011_2014-139_0191_20140519_164203_EX1403_MB.txt.mb163 34.02MB Generic YXZ sounding format
EX1403_Okeanos_March_2011_2014-139_0192_20140519_173345_EX1403_MB.txt.mb163 10.25MB Generic YXZ sounding format
EX1403_Okeanos_March_2011_2014-139_0193_20140519_175204_EX1403_MB.txt.mb163 17.78MB Generic YXZ sounding format
EX1403_Okeanos_March_2011_2014-139_0194_20140519_182238_EX1403_MB.txt.mb163 18.00MB Generic YXZ sounding format
EX1403_Okeanos_March_2011_2014-139_0195_20140519_191455_EX1403_MB.txt.mb163 2.84MB Generic YXZ sounding format
EX1403_Okeanos_March_2011_2014-139_0196_20140519_192213_EX1403_MB.txt.mb163 15.16MB Generic YXZ sounding format
EX1403_Okeanos_March_2011_2014-139_0197_20140519_201409_EX1403_MB.txt.mb163 1.77MB Generic YXZ sounding format
EX1403_Okeanos_March_2011_2014-139_0198_20140519_202048_EX1403_MB.txt.mb163 11.09MB Generic YXZ sounding format
EX1403_Okeanos_March_2011_2014-139_0199_20140519_210026_EX1403_MB.txt.mb163 4.30MB Generic YXZ sounding format
EX1403_Okeanos_March_2011_2014-139_0200_20140519_211403_EX1403_MB.txt.mb163 12.58MB Generic YXZ sounding format
EX1403_Okeanos_March_2011_2014-139_0201_20140519_215714_EX1403_MB.txt.mb163 2.43MB Generic YXZ sounding format
EX1403_Okeanos_March_2011_2014-139_0202_20140519_220613_EX1403_MB.txt.mb163 13.45MB Generic YXZ sounding format
EX1403_Okeanos_March_2011_2014-139_0203_20140519_225140_EX1403_MB.txt.mb163 2.04MB Generic YXZ sounding format
EX1403_Okeanos_March_2011_2014-139_0204_20140519_225804_EX1403_MB.txt.mb163 19.56MB Generic YXZ sounding format
EX1403_Okeanos_March_2011_2014-139_0205_20140519_234027_EX1403_MB.txt.mb163 4.44MB Generic YXZ sounding format
EX1403_Okeanos_March_2011_2014-140_0206_20140519_234814_EX1403_MB.txt.mb163 6.43MB Generic YXZ sounding format
EX1403_Okeanos_March_2011_2014-140_0207_20140520_000151_EX1403_MB.txt.mb163 2.44MB Generic YXZ sounding format
EX1403_Okeanos_March_2011_2014-140_0208_20140520_000918_EX1403_MB.txt.mb163 6.66MB Generic YXZ sounding format
EX1403_Okeanos_March_2011_2014-140_0209_20140520_002526_EX1403_MB.txt.mb163 4.80MB Generic YXZ sounding format
EX1403_Okeanos_March_2011_2014-140_0210_20140520_003655_EX1403_MB.txt.mb163 4.24MB Generic YXZ sounding format
EX1403_Okeanos_March_2011_2014-140_0211_20140520_004757_EX1403_MB.txt.mb163 2.39MB Generic YXZ sounding format
EX1403_Okeanos_March_2011_2014-140_0212_20140520_005557_EX1403_MB.txt.mb163 3.23MB Generic YXZ sounding format
EX1403_Okeanos_March_2011_2014-140_0213_20140520_010527_EX1403_MB.txt.mb163 2.78MB Generic YXZ sounding format
EX1403_Okeanos_March_2011_2014-140_0214_20140520_011417_EX1403_MB.txt.mb163 5.15MB Generic YXZ sounding format
EX1403_Okeanos_March_2011_2014-140_0215_20140520_012648_EX1403_MB.txt.mb163 3.24MB Generic YXZ sounding format
EX1403_Okeanos_March_2011_2014-140_0216_20140520_013406_EX1403_MB.txt.mb163 5.48MB Generic YXZ sounding format
EX1403_Okeanos_March_2011_2014-140_0217_20140520_014531_EX1403_MB.txt.mb163 1.19MB Generic YXZ sounding format
EX1403_Okeanos_March_2011_2014-140_0218_20140520_015220_EX1403_MB.txt.mb163 4.94MB Generic YXZ sounding format
EX1403_Okeanos_March_2011_2014-140_0219_20140520_020320_EX1403_MB.txt.mb163 62.27MB Generic YXZ sounding format
EX1403_Okeanos_March_2011_2014-140_0220_20140520_040321_EX1403_MB.txt.mb163 10.07MB Generic YXZ sounding format
EX1403_Okeanos_March_2011_2014-140_0221_20140520_053712_EX1403_MB.txt.mb163 6.07MB Generic YXZ sounding format
EX1403_Okeanos_March_2011_2014-140_0222_20140520_073712_EX1403_MB.txt.mb163 5.80MB Generic YXZ sounding format
EX1403_Okeanos_March_2011_2014-140_0223_20140520_084150_EX1403_MB.txt.mb163 44.75MB Generic YXZ sounding format
EX1403_Okeanos_March_2011_2014-140_0224_20140520_104149_EX1403_MB.txt.mb163 20.57MB Generic YXZ sounding format
EX1403_Okeanos_March_2011_2014-140_0225_20140520_124150_EX1403_MB.txt.mb163 15.05MB Generic YXZ sounding format
EX1403_Okeanos_March_2011_2014-140_0226_20140520_144149_EX1403_MB.txt.mb163 10.75MB Generic YXZ sounding format
EX1403_Okeanos_March_2011_2014-140_0227_20140520_164150_EX1403_MB.txt.mb163 10.20MB Generic YXZ sounding format
EX1403_Okeanos_March_2011_2014-140_0228_20140520_184153_EX1403_MB.txt.mb163 9.39MB Generic YXZ sounding format
EX1403_Okeanos_March_2011_2014-140_0229_20140520_204155_EX1403_MB.txt.mb163 9.55MB Generic YXZ sounding format
EX1403_Okeanos_March_2011_2014-140_0230_20140520_224151_EX1403_MB.txt.mb163 3.01MB Generic YXZ sounding format
EX1403_Okeanos_March_2011_2014-141_0231_20140520_233609_EX1403_MB.txt.mb163 2.23MB Generic YXZ sounding format
EX1403_Okeanos_March_2011_2014-141_0232_20140521_000000_EX1403_MB.txt.mb163 2.93MB Generic YXZ sounding format
EX1403_Okeanos_March_2011_2014-141_0234_20140521_003452_EX1403_MB.txt.mb163 258 Bytes Generic YXZ sounding format
EX1403_Okeanos_March_2011_2014-141_0235_20140521_004045_EX1403_MB.txt.mb163 37.89MB Generic YXZ sounding format
EX1403_Okeanos_March_2011_2014-141_0236_20140521_024029_EX1403_MB.txt.mb163 24.43MB Generic YXZ sounding format
EX1403_Okeanos_March_2011_2014-141_0237_20140521_044029_EX1403_MB.txt.mb163 1.11MB Generic YXZ sounding format
EX1403_Okeanos_March_2011_2014-141_0238_20140521_044407_EX1403_MB.txt.mb163 25.56MB Generic YXZ sounding format
EX1403_Okeanos_March_2011_2014-141_0239_20140521_064407_EX1403_MB.txt.mb163 38.60MB Generic YXZ sounding format
EX1403_Okeanos_March_2011_2014-141_0240_20140521_084407_EX1403_MB.txt.mb163 25.32MB Generic YXZ sounding format
EX1403_Okeanos_March_2011_2014-141_0241_20140521_104408_EX1403_MB.txt.mb163 58.44MB Generic YXZ sounding format
EX1403_Okeanos_March_2011_2014-141_0242_20140521_124407_EX1403_MB.txt.mb163 64.02MB Generic YXZ sounding format
EX1403_Okeanos_March_2011_2014-141_0243_20140521_144407_EX1403_MB.txt.mb163 70.57MB Generic YXZ sounding format
EX1403_Okeanos_March_2011_2014-141_0244_20140521_164406_EX1403_MB.txt.mb163 44.96MB Generic YXZ sounding format
EX1403_Okeanos_March_2011_2014-141_0245_20140521_184407_EX1403_MB.txt.mb163 39.33MB Generic YXZ sounding format
EX1403_Okeanos_March_2011_2014-141_0246_20140521_204409_EX1403_MB.txt.mb163 100.2KB Generic YXZ sounding format
EX1403_Okeanos_March_2011_2014-141_0247_20140521_211115_EX1403_MB.txt.mb163 3.87MB Generic YXZ sounding format
EX1403_Okeanos_March_2011_2014-141_0249_20140521_213534_EX1403_MB.txt.mb163 21.25MB Generic YXZ sounding format
EX1403_Okeanos_March_2011_2014-141_0250_20140521_233527_EX1403_MB.txt.mb163 2.59MB Generic YXZ sounding format
EX1403_Okeanos_March_2011_2014-142_0251_20140522_000008_EX1403_MB.txt.mb163 34.90MB Generic YXZ sounding format

Products: 15

Files File Size Description
EX1403_MB_FNL01_50m_WGS84.asc.gz 7.42MB ESRI Arc ASCII
EX1403_MB_FNL01_50m_WGS84.kmz.gz 107.2KB Compressed Keyhole Markup Language file
EX1403_MB_FNL01_50m_WGS84.sd.gz 10.15MB Fledermaus surface
EX1403_MB_FNL01_50m_WGS84.tif.gz 5.92MB GeoTIFF survey image
EX1403_MB_FNL01_50m_WGS84.xyz.gz 13.12MB xyz grid file provided by the originator
EX1403_MB_FNL03_50m_WGS84.asc.gz 5.98MB ESRI Arc ASCII
EX1403_MB_FNL03_50m_WGS84.kmz.gz 98.5KB Compressed Keyhole Markup Language file
EX1403_MB_FNL03_50m_WGS84.sd.gz 7.45MB Fledermaus surface
EX1403_MB_FNL03_50m_WGS84.tif.gz 4.33MB GeoTIFF survey image
EX1403_MB_FNL03_50m_WGS84.xyz.gz 9.83MB xyz grid file provided by the originator
EX1403_MB_FNL_Stetson_Mesa_30m_WGS84.asc.gz 13.99MB ESRI Arc ASCII
EX1403_MB_FNL_Stetson_Mesa_30m_WGS84.kmz.gz 17.39MB Compressed Keyhole Markup Language file
EX1403_MB_FNL_Stetson_Mesa_30m_WGS84.sd.gz 25.24MB Fledermaus surface
EX1403_MB_FNL_Stetson_Mesa_30m_WGS84.tif.gz 17.35MB GeoTIFF survey image
EX1403_MB_FNL_Stetson_Mesa_30m_WGS84.xyz.gz 36.55MB xyz grid file provided by the originator

Metadata Files: 8

Files File Size Description
EX1403_Multibeam.xml NCEI created ISO metadata
EX1403_COLLECTION_UNRESOLVED.xml 10.0KB XML metadata file
EX1403_Multibeam_COLLECTION_UNRESOLVED.xml 20.6KB XML metadata file
EX1403_Profile_COLLECTION_UNRESOLVED.xml 15.0KB XML metadata file
mb_bag_info.tar.gz 29.1KB Additional cruise information
v1_file_metadata.tar.gz 75.3KB File level metadata
wcp_bag_info.tar.gz 10.8KB Additional cruise information
v2_file_metadata.tar.gz 82.5KB File level metadata

Ancillary Files: 4

Files File Size Description
asvp.tar.gz 508.6KB Sound Speed Profiles (SSP or SVP)
ctd.tar.gz 4.02MB Conductivity, Temperature, Depth (CTD) data
support.tar.gz 134.9KB Supporting data
xbt.tar.gz 2.26MB Expendable Bathythermograph (XBT) data

Water Column Sonar Data

Water Column Sonar Data Available: WCSD Map Viewer